POLYITAN-1

Last updated on Sat Aug 15 2026 00:03:44 GMT+0000 (Coordinated Universal Time)

1 40042U 14033AJ 26226.03315878 .00010184 00000+0 30126-3 0 9992 2 40042 98.0920 257.8501 0004740 314.6601 45.4254 15.35129561662460
UTC large
Height (km)
Speed (km/s)
/
Latitude / Longitude
Inclination (degrees)
Orbital Period (minutes)
Azimuth
Elevation
Range (km)
Doppler Factor

Next 0 passes for location: London (51.5072 / 0.1276)

No passes found over London.
POLYITAN-1